Location: Enborne
(51.3833°N, 1.3667°W)
Time: 14:00:14
(UTC+00:00)

NOSS 2-2 (C) - Pass Details

Date: 17 January 2021
Orbit: 463 x 1745 km, 63.3° (Epoch: 03 March)

Event Time Altitude Azimuth Distance (km) Brightness Sun altitude
Rises 20:07:59 0° 312° (NW) 2,825 7.7 -33.3°
Reaches altitude 10° 20:10:14 10° 325° (NW) 2,054 6.7 -33.7°
Enters shadow 20:11:14 16° 334° (NNW) 1,762 6.2 -33.8°
